カタログに戻る

BLOCK DM-SL R/B

運用中GTO
NORAD 27826·ROCKET BODY· XX

打ち上げ Jun 10, 2003 から Sea Launch Platform

Loading…

TLE

最新Source: Space-Track

元期: Sep 14, 2026, 12:25 UTC

1 27826U 03026B   26257.51758867 -.00000092  00000-0  00000-0 0  9997
2 27826   6.1441  41.6834 6971220  12.0780 237.2233  2.22047314188772

AllMySatでBLOCK DM-SL R/Bをリアルタイム追跡

Download on the App Store